Terug naar catalogus

USA 445

ActiefMilitairVLEO
NORAD 62344·PAYLOAD·🇺🇸 United States

Gelanceerd Dec 17, 2024 vanaf Vandenberg Space Force Base

Loading…

Volgende Passages (komende 24 uur)

TLE

VerouderdSource: Mike McCants

Epoch: Aug 19, 2026, 20:50 UTC

1 62344U 24243E   26231.86850236 0.00000000  00000-0  00000-0 0    09
2 62344  70.0205 137.3017 0002000  96.1054 263.8946 14.96713236    04

Volg USA 445 in realtime met AllMySat

Download on the App Store